Le nostre stazioni meteo in Italia

Pubblicità
Il mio iltempo24.it
Ancona, Italia (16190): Temperatura & dewpoint: 20.08.2019 12:00:00 - 26.08.2019 12:00:00 (CEST)Ancona, Italia (16190): velocità del vento: 20.08.2019 12:00:00 - 26.08.2019 12:00:00 (CEST)Ancona, Italia (16190): direzione del vento: 20.08.2019 12:00:00 - 26.08.2019 12:00:00 (CEST)
Data & Tempo tt [°C] td [°C] ff [km/h] ff [kn] dd
26.08.2019 12:00:00 - - - - -
26.08.2019 11:00:00 26,1 19,9 15 8 NO
26.08.2019 10:00:00 25,4 20,1 9 5 ONO
26.08.2019 09:00:00 23,8 18,6 18 10 ONO
26.08.2019 08:00:00 22,8 18,7 13 7 O
26.08.2019 07:00:00 22,2 18,1 11 6 O
26.08.2019 06:00:00 22,6 18,7 18 10 O
26.08.2019 05:00:00 22,7 18,6 11 6 O
26.08.2019 04:00:00 22,4 18,5 13 7 O
26.08.2019 03:00:00 22,7 19,0 9 5 O
26.08.2019 02:00:00 23,0 19,7 4 2 O
26.08.2019 01:00:00 23,1 20,0 8 4 ONO
26.08.2019 00:00:00 23,3 20,2 4 2 O
25.08.2019 23:00:00 23,4 20,5 4 2 SO
25.08.2019 22:00:00 23,9 20,8 4 2 ONO
25.08.2019 21:00:00 24,0 20,3 4 2 NNO
25.08.2019 20:00:00 24,5 19,9 4 2 NNO
25.08.2019 19:00:00 26,0 20,5 11 6 N
25.08.2019 18:00:00 25,7 19,8 11 6 NNO
25.08.2019 17:00:00 26,9 20,4 8 4 N
25.08.2019 16:00:00 27,2 21,2 16 9 N
25.08.2019 15:00:00 27,2 21,0 15 8 N
25.08.2019 14:00:00 25,8 20,3 13 7 NNO
25.08.2019 13:00:00 25,1 20,1 15 8 NO
25.08.2019 12:00:00 24,5 19,5 16 9 NO
25.08.2019 11:00:00 24,6 19,6 18 10 NO
25.08.2019 10:00:00 24,0 19,2 9 5 ONO
25.08.2019 09:00:00 23,1 19,0 11 6 O
25.08.2019 08:00:00 22,4 17,7 11 6 O
25.08.2019 07:00:00 22,4 17,7 11 6 ONO
25.08.2019 06:00:00 23,6 19,9 18 10 NNO
25.08.2019 05:00:00 23,9 20,0 18 10 NNO
25.08.2019 04:00:00 23,4 20,1 13 7 NO
25.08.2019 03:00:00 23,2 19,3 9 5 ONO
25.08.2019 02:00:00 22,8 19,3 8 4 SO
25.08.2019 01:00:00 23,1 20,2 11 6 S
25.08.2019 00:00:00 23,7 19,8 11 6 SSO
24.08.2019 23:00:00 24,1 20,2 2 1 OSO
24.08.2019 22:00:00 24,0 19,7 2 1 NE
24.08.2019 21:00:00 24,1 19,5 5 3 NNE
24.08.2019 20:00:00 24,7 20,3 4 2 ONO
24.08.2019 19:00:00 25,2 20,4 4 2 NNO
24.08.2019 18:00:00 25,7 20,0 9 5 N
24.08.2019 17:00:00 26,7 20,5 18 10 N
24.08.2019 16:00:00 27,5 21,0 11 6 ESE
24.08.2019 15:00:00 27,6 21,1 18 10 N
24.08.2019 14:00:00 27,3 20,8 21 11 N
24.08.2019 13:00:00 26,3 19,9 18 10 NO
24.08.2019 12:00:00 26,0 19,8 22 12 NO
24.08.2019 11:00:00 25,5 20,0 22 12 NO
24.08.2019 10:00:00 24,8 19,6 21 11 NO
24.08.2019 09:00:00 23,9 19,1 11 6 O
24.08.2019 08:00:00 22,8 18,5 18 10 O
24.08.2019 07:00:00 22,5 18,0 13 7 O
24.08.2019 06:00:00 22,5 17,8 18 10 ONO
24.08.2019 05:00:00 22,8 18,5 13 7 ONO
24.08.2019 04:00:00 22,7 18,8 15 8 ONO
24.08.2019 03:00:00 22,9 18,8 9 5 O
24.08.2019 02:00:00 23,3 19,2 13 7 O
24.08.2019 01:00:00 24,0 18,8 9 5 ONO
24.08.2019 00:00:00 24,4 18,0 11 6 NNO
23.08.2019 23:00:00 24,3 18,4 13 7 NNO
23.08.2019 22:00:00 24,2 19,0 9 5 NO
23.08.2019 21:00:00 24,3 19,3 8 4 ONO
23.08.2019 20:00:00 24,5 18,8 9 5 O
23.08.2019 19:00:00 24,9 18,5 8 4 O
23.08.2019 18:00:00 25,4 17,3 11 6 O
23.08.2019 17:00:00 25,4 18,3 11 6 NNO
23.08.2019 16:00:00 24,5 18,1 5 3 NE
23.08.2019 15:00:00 24,6 18,9 8 4 N
23.08.2019 14:00:00 23,8 19,7 11 6 NNO
23.08.2019 13:00:00 23,8 18,2 5 3 O
23.08.2019 12:00:00 23,9 18,0 8 4 O
23.08.2019 11:00:00 25,3 19,6 13 7 O
23.08.2019 10:00:00 24,5 19,1 13 7 NO
23.08.2019 09:00:00 22,5 19,4 16 9 NO
23.08.2019 08:00:00 21,8 18,1 21 11 O
23.08.2019 07:00:00 22,7 18,8 16 9 OSO
23.08.2019 06:00:00 22,5 18,2 15 8 O
23.08.2019 05:00:00 22,4 18,7 11 6 ONO
23.08.2019 04:00:00 22,3 18,2 8 4 O
23.08.2019 03:00:00 22,8 18,9 9 5 ONO
23.08.2019 02:00:00 23,2 18,9 8 4 O
23.08.2019 01:00:00 23,8 19,0 8 4 NO
23.08.2019 00:00:00 23,8 19,7 8 4 N
22.08.2019 23:00:00 23,9 18,9 8 4 NNO
22.08.2019 22:00:00 24,7 20,1 15 8 NO
22.08.2019 21:00:00 24,8 19,6 16 9 NO
22.08.2019 20:00:00 24,7 18,1 11 6 N
22.08.2019 19:00:00 25,1 17,2 13 7 NO
22.08.2019 18:00:00 25,5 17,9 22 12 N
22.08.2019 17:00:00 26,3 17,6 13 7 ESE
22.08.2019 16:00:00 26,2 18,5 13 7 N
22.08.2019 15:00:00 27,9 18,0 16 9 N
22.08.2019 14:00:00 29,4 18,5 9 5 NNE
22.08.2019 13:00:00 28,9 18,9 15 8 NNE
22.08.2019 12:00:00 29,0 19,9 8 4 NNE
22.08.2019 11:00:00 27,8 19,8 11 6 NNE
22.08.2019 10:00:00 27,8 21,8 4 2 NNE
22.08.2019 09:00:00 25,4 21,4 8 4 O
22.08.2019 08:00:00 24,5 20,6 4 2 ONO
22.08.2019 07:00:00 24,1 20,4 4 2 ONO
22.08.2019 06:00:00 24,2 20,7 8 4 NE
22.08.2019 05:00:00 23,8 20,1 8 4 N
22.08.2019 04:00:00 24,1 20,4 5 3 ONO
22.08.2019 03:00:00 24,3 20,6 4 2 NO
22.08.2019 02:00:00 24,5 20,6 2 1 O
22.08.2019 01:00:00 24,5 20,3 5 3 ONO
22.08.2019 00:00:00 25,0 20,2 8 4 O
21.08.2019 23:00:00 25,3 20,5 4 2 OSO
21.08.2019 22:00:00 25,5 20,0 5 3 O
21.08.2019 21:00:00 25,7 19,5 8 4 NO
21.08.2019 20:00:00 26,5 17,5 0 0 N
21.08.2019 19:00:00 27,4 16,0 5 3 NNE
21.08.2019 18:00:00 28,2 20,2 8 4 NNO
21.08.2019 17:00:00 28,8 21,0 8 4 NE
21.08.2019 16:00:00 29,6 21,5 5 3 NNE
21.08.2019 15:00:00 29,6 21,0 16 9 NNE
21.08.2019 14:00:00 29,5 21,4 11 6 NNE
21.08.2019 13:00:00 28,9 20,8 9 5 N
21.08.2019 12:00:00 28,9 18,9 5 3 N
21.08.2019 11:00:00 28,6 18,3 8 4 NNO
21.08.2019 10:00:00 28,3 18,6 4 2 NNE
21.08.2019 09:00:00 26,6 19,4 2 1 SSO
21.08.2019 08:00:00 26,5 19,3 2 1 ESE
21.08.2019 07:00:00 25,3 16,4 2 1 ENE
21.08.2019 06:00:00 25,7 12,5 2 1 SSE
21.08.2019 05:00:00 26,7 12,3 8 4 SE
21.08.2019 04:00:00 26,2 12,3 4 2 N
21.08.2019 03:00:00 25,5 13,3 5 3 S
21.08.2019 02:00:00 25,1 13,2 8 4 SSO
21.08.2019 01:00:00 26,1 11,8 21 11 S
21.08.2019 00:00:00 27,1 11,9 18 10 S
20.08.2019 23:00:00 26,9 13,2 18 10 S
20.08.2019 22:00:00 27,4 12,6 21 11 S
20.08.2019 21:00:00 27,2 13,8 29 16 SSE
20.08.2019 20:00:00 27,5 16,1 24 13 S
20.08.2019 19:00:00 29,4 15,5 15 8 S
20.08.2019 18:00:00 29,0 18,4 8 4 SSE
20.08.2019 17:00:00 28,9 19,8 16 9 ESE
20.08.2019 16:00:00 29,0 19,9 18 10 E
20.08.2019 15:00:00 28,9 18,6 15 8 E
20.08.2019 14:00:00 29,7 20,5 8 4 NE
20.08.2019 13:00:00 29,0 19,0 13 7 NE
20.08.2019 12:00:00 29,8 19,2 5 3 NNE

tt = Temperatura
td = dewpoint
ff = velocità del vento
dd = direzione del vento

Stazioni seguenti

WeatherPro
AMSI
MeteoEarth